Regional Weather Roundup
Issued by NWS

Home | Current Version | Previous Version | Text Only | Print | Product List | Glossary On
Versions: 1 2 3 4 5 6 7 8 9 10 11 12 13 14 15 16 17 18 19 20 21 22 23 24 25 26 27 28 29 30 31 32 33 34 35 36 37 38 39 40 41 42 43 44 45 46 47 48 49 50
000
ASUS43 KDMX 041507
RWRIA

WEATHER ROUNDUP FOR IOWA
NATIONAL WEATHER SERVICE DES MOINES IA
1000 AM CDT TUE AUG 04 2015

NOTE: "FAIR" INDICATES FEW OR NO CLOUDS BELOW 12,000 FEET WITH NO
SIGNIFICANT WEATHER AND/OR OBSTRUCTIONS TO VISIBILITY.

* - THESE STATIONS ARE NOT NWS STATIONS...THUS NOT UNDER NWS
QUALITY CONTROL.  THEY ALSO DO NOT REPORT WEATHER SUCH
AS PRECIPITATION OR FOG.

IAZ001>003-012>014-020>022-031>034-043>046-041600-
   NORTHWEST IOWA

CITY           SKY/WX    TMP DP  RH WIND       PRES   REMARKS
CARROLL *      PTSUNNY   68  64  88 CALM      30.04S
CHEROKEE *     CLOUDY    68  64  88 CALM      30.04S
DENISON *      SUNNY     70  64  83 CALM      30.01F
LE MARS *      MOSUNNY   70  64  83 CALM      30.02F
ORANGE CITY *  SUNNY     66  61  82 E5        30.03F
SHELDON *      SUNNY     66  59  77 E7        30.03F
SIOUX CITY     CLOUDY    69  61  75 E7        30.01F
SPENCER        CLOUDY    69  56  62 E6        30.05F
STORM LAKE *   SUNNY     68  61  77 E5        30.06S
$$

IAZ055>058-069>071-079>083-090>094-041600-
   SOUTHWEST IOWA

CITY           SKY/WX    TMP DP  RH WIND       PRES   REMARKS
ATLANTIC *     SUNNY     68  64  88 CALM      30.04R
AUDUBON *      SUNNY     70  64  83 CALM      30.05F
CLARINDA *     LGT RAIN  66  66 100 CALM      30.06R
COUNCIL BLFS * CLOUDY    64  64 100 SW7       30.06R
CRESTON *      LGT RAIN  64  63  94 SE7       30.05F
HARLAN  *      SUNNY     68  68 100 CALM      30.06S
LAMONI         TSTM      65  63  93 W5        30.07R
RED OAK *      MOSUNNY   66  66 100 SW5       30.05R
SHENANDOAH *   DRIZZLE   66  66 100 NE3       30.06R
$$

IAZ047>049-059>061-072>074-084-041600-
   CENTRAL IOWA

CITY           SKY/WX    TMP DP  RH WIND       PRES   REMARKS
AMES           CLOUDY    72  62  71 CALM      30.04S
ANKENY *       LGT RAIN  73  61  64 W3        30.05R
CHARITON *     CLOUDY    66  63  88 W5        30.05R
DES MOINES     CLOUDY    73  61  65 CALM      30.04R
GRINNELL*      CLOUDY    72  63  73 W3        30.05S
KNOXVILLE *    SUNNY     70  64  83 W6        30.03R
MARSHALLTOWN   CLOUDY    70  62  76 N3        30.04R
PELLA *        CLOUDY    70  66  88 CALM      30.04S
PERRY *          N/A     73  64  73 CALM      30.04F
$$

IAZ004>006-015-016-023>025-035-036-041600-
   NORTH CENTRAL IOWA

CITY           SKY/WX    TMP DP  RH WIND       PRES   REMARKS
ALGONA *       SUNNY     70  59  68 CALM      30.06R
CLARION *      SUNNY     70  61  73 NE5       30.05S
ESTHERVILLE    CLOUDY    68  58  70 S5        30.06S
FORT DODGE *   CLOUDY    70  57  64 NE6       30.06S
MASON CITY     CLOUDY    73  58  59 NW3       30.06S
FOREST CITY *  SUNNY     70  57  64 CALM      30.06R
IOWA FALLS *     N/A     70  57  64 CALM      30.06R
$$

IAZ007>011-017>019-026>030-037>042-050>054-066-041600-
   NORTHEAST IOWA

CITY           SKY/WX    TMP DP  RH WIND       PRES   REMARKS
CEDAR RAPIDS   PTSUNNY   71  66  84 W5        30.03R
CHARLES CITY * SUNNY     68  59  73 CALM      30.05S
CLINTON *      MOSUNNY   73  61  64 NW8       30.03S
DECORAH *      SUNNY     68  57  68 CALM      30.03S
DUBUQUE        MOSUNNY   72  57  59 NW7       30.03R
MONTICELLO *   SUNNY     73  57  56 NW5       30.02S
OELWEIN *        N/A     70  59  68 N5        30.04S
WATERLOO       PTSUNNY   71  61  70 N3        30.03R
$$

IAZ064-065-067-068-078-041600-
   EAST CENTRAL IOWA

CITY           SKY/WX    TMP DP  RH WIND       PRES   REMARKS
DAVENPORT      PTSUNNY   74  62  66 W5        30.02R
IOWA CITY      PTSUNNY   72  63  73 W3        30.04R
MT. PLEASANT * CLOUDY    77  57  50 CALM      30.02S
MUSCATINE *    SUNNY     73  61  64 CALM      30.02S
QUAD CITIES    PTSUNNY   76  60  57 W6        30.01S
$$

IAZ062-063-075>077-085>089-095>099-041600-
   SOUTHEAST IOWA

CITY           SKY/WX    TMP DP  RH WIND       PRES   REMARKS
BURLINGTON     PTSUNNY   74  64  71 N3        30.02R
FAIRFIELD *    MOSUNNY   73  61  64 CALM      30.01F
FORT MADISON * MOSUNNY   72  66  83 CALM      30.02S
KEOKUK *       PTSUNNY   72  63  73 CALM      30.01R
OSKALOOSA *      N/A     73  64  73 CALM      30.03S
CENTERVILLE *  MOSUNNY   68  64  88 W3        30.06R
OTTUMWA        CLOUDY    72  61  68 CALM      30.01S
WASHINGTON *   SUNNY     75  61  60 CALM      30.03F
$$

ABBREVIATIONS USED IN REMARKS
   TC - TEMPERATURES IN CELSIUS
  WCI - WIND CHILL INDEX
   HX - HEAT INDEX
  VSB - VISIBILITY
$$




USA.gov is the U.S. government's official web portal to all federal, state and local government web resources and services.